DW9435 Weather Reports


time (UTC)temp
F
wind
direction
speed
knots
gust
knots
rain 1hr
in
rain 24hr
in
rain mn
in
humidity
%
barometer
mb
20260505070051 53 101 5.2 22.6 0.00 0.00 0.00 64 1001.2
20260505064540 54 326 2.6 11.3 0.00 0.00 0.00 61 1001.4
20260505063044 54 326 1.7 7.0 0.00 0.00 0.00 58 1001.5
20260505061536 54 287 9.6 22.6 0.00 0.00 0.00 57 1001.7
20260505060052 54 165 7.0 15.6 0.00 0.00 0.00 60 1001.6
20260505054532 54 205 6.1 17.4 0.00 0.00 0.00 61 1001.4
20260505053032 54 259 5.2 19.1 0.00 0.00 0.00 62 1001.5
20260505051527 55 208 10.4 25.2 0.00 0.00 0.00 62 1001.5
20260505041515 58 344 2.6 10.4 0.00 0.00 0.00 58 1000.4
20260505040019 59 16 6.1 12.2 0.00 0.00 0.00 54 999.8
20260505034512 59 259 12.2 26.1 0.00 0.00 0.00 48 999.6
20260505033010 60 162 16.5 30.4 0.00 0.00 0.00 51 999.6
20260505031506 61 210 10.4 20.9 0.00 0.00 0.00 43 999.3
20260505030005 62 232 5.2 10.4 0.00 0.00 0.00 39 999.1
20260505024504 62 268 3.5 7.0 0.00 0.00 0.00 38 999.1
20260505023004 62 22 0.9 3.5 0.00 0.00 0.00 38 998.9
20260505021503 63 226 5.2 13.0 0.00 0.00 0.00 38 998.8
20260505020002 63 239 8.7 17.4 0.00 0.00 0.00 38 998.7
20260505014503 63 222 5.2 10.4 0.00 0.00 0.00 37 998.6
20260505013001 63 120 4.3 13.9 0.00 0.00 0.00 38 998.8
20260505011601 64 96 7.0 14.8 0.00 0.00 0.00 37 998.8
20260505011500 64 147 8.7 14.8 0.00 0.00 0.00 37 998.8
20260505010104 67 59 0.0 1.7 0.00 0.00 0.00 31 998.7
20260505004600 66 104 0.0 2.6 0.00 0.00 0.00 31 998.7
20260505003104 66 117 0.0 2.6 0.00 0.00 0.00 32 998.7
20260505001558 66 359 0.0 7.0 0.00 0.00 0.00 33 998.9
20260505000058 65 356 5.2 8.7 0.00 0.00 0.00 33 998.9
20260504234555 66 28 4.3 11.3 0.00 0.00 0.00 33 999.1
20260504233058 67 49 4.3 10.4 0.00 0.00 0.00 31 999.0
20260504231553 66 51 2.6 10.4 0.00 0.00 0.00 33 998.9
20260504230051 66 29 2.6 7.0 0.00 0.00 0.00 32 999.0
20260504224551 66 6 4.3 9.6 0.00 0.00 0.00 32 999.1
20260504223104 67 13 3.5 13.0 0.00 0.00 0.00 33 999.1
20260504221551 67 18 7.8 13.9 0.00 0.00 0.00 33 999.1
20260504220047 67 352 4.3 8.7 0.00 0.00 0.00 33 999.2
20260504214547 67 302 1.7 7.0 0.00 0.00 0.00 32 999.3
20260504213046 67 263 4.3 7.8 0.00 0.00 0.00 33 999.4
20260504211622 67 252 4.3 13.0 0.00 0.00 0.00 34 999.2
20260504210049 67 255 4.3 10.4 0.00 0.00 0.00 31 999.4
20260504204544 69 300 1.7 6.1 0.00 0.00 0.00 28 999.2
20260504203044 70 256 5.2 10.4 0.00 0.00 0.00 27 999.3
20260504201542 70 300 1.7 7.8 0.00 0.00 0.00 27 999.3
20260504200041 71 238 6.1 9.6 0.00 0.00 0.00 26 999.4
20260504194547 70 207 4.3 16.5 0.00 0.00 0.00 27 999.5
20260504193037 70 335 2.6 12.2 0.00 0.00 0.00 28 999.7
20260504191537 68 184 8.7 16.5 0.00 0.00 0.00 29 999.9
20260504190036 69 206 9.6 18.2 0.00 0.00 0.00 28 1000.1
20260504184543 70 191 2.6 8.7 0.00 0.00 0.00 29 1000.3
20260504183028 69 333 1.7 9.6 0.00 0.00 0.00 31 1000.5
20260504181530 69 87 5.2 13.9 0.00 0.00 0.00 29 1000.8
20260504180025 68 25 2.6 7.8 0.00 0.00 0.00 30 1001.0
20260504174622 67 246 1.7 11.3 0.00 0.00 0.00 32 1001.2
20260504173018 66 354 3.5 9.6 0.00 0.00 0.00 32 1001.3
20260504171519 67 113 3.5 10.4 0.00 0.00 0.00 31 1001.5
20260504081536 59 121 7.0 18.2 0.00 0.00 0.00 35 1002.1